Flag for Canada Weather past 2 weeks in Saint John, New Brunswick, Canada

Now
50 °F

Fog.


Feels Like: 45 °F
Forecast: 47 / 64 °F
Wind: 14 mph from Southwest

Location: Saint John

Current Time: May 27, 2015 at 1:52:40 AM

Latest Report: May 27, 2015 at 1:00 AM


Visibility: 2 mi

Pressure: 30.11 "Hg

Humidity: 94%

Dew point: 48 °F

Location of Saint JohnLocation

Historic Weather in Saint John — Graph

°F

Saint John temperature yesterday

Maximum temperature yesterday: 54 °F (at 1:00 PM)
Minimum temperature yesterday: 48 °F (at 12:00 AM)
Average temperature yesterday: 50 °F

Past Weeks' High & Low Weather Summary

 TemperatureHumidityPressure
High68 °F (May 15, 12:00 PM)100% (May 12, 12:00 AM)30.33 "Hg (May 12, 12:00 AM)
Low28 °F (May 14, 3:00 AM)24% (May 16, 2:00 PM)29.49 "Hg (May 20, 5:00 PM)
Average49 °F75%30.01 "Hg
* Reported Midnight between May 11 and May 12 — Midnight between May 26 and May 27, Saint John, Weather by CustomWeather, © 2015

Note: Actual official high and low records may vary slightly from our data, if they occured in-between our weather recording intervals... More about our weather records

Advertising

Saint John weather history for previous 24 hours

 ConditionsComfort  
Time TempWeatherWind HumidityBarometerVisibility
12:00 AM
Wed, May 27
50 °FFog.12 mph100%30.11 "Hg1 mi
11:00 PM
Tue, May 26
50 °FFog.15 mph100%30.11 "Hg1 mi
10:00 PM50 °FFog.14 mph94%30.10 "Hg1 mi
9:00 PM48 °FFog.14 mph100%30.09 "Hg1 mi
8:00 PM50 °FFog.15 mph94%30.08 "Hg1 mi
7:00 PM52 °FFog.15 mph94%30.08 "Hg2 mi
6:00 PM50 °FFog.16 mph94%30.09 "Hg2 mi
5:00 PM52 °FFog.16 mph94%30.07 "Hg2 mi
4:00 PM50 °FFog.16 mph100%30.07 "Hg1 mi
3:00 PM50 °FFog.16 mph100%30.07 "Hg1 mi
2:00 PM52 °FLight rain. Fog.20 mph94%30.08 "Hg2 mi
1:00 PM54 °FLight rain. Fog.16 mph94%30.08 "Hg2 mi
12:00 PM52 °FLight rain. Fog.17 mph94%30.11 "Hg2 mi
11:00 AM50 °FLight rain. Fog.16 mph100%30.11 "Hg1 mi
10:00 AM50 °FLight rain. Fog.21 mph100%30.11 "Hg1 mi
9:00 AM50 °FLight rain. Fog.18 mph100%30.11 "Hg1 mi
8:00 AM50 °FLight rain. Fog.20 mph100%30.11 "Hg2 mi
7:00 AM50 °FLight rain. Fog.14 mph100%30.13 "Hg2 mi
6:46 AM50 °FLight rain. Fog.12 mph100%30.13 "Hg2 mi
6:00 AM48 °FLight rain. Fog.10 mph100%30.13 "Hg2 mi
5:00 AM48 °FLight rain. Fog.9 mph100%30.13 "Hg4 mi
4:00 AM48 °FLight rain. Overcast.8 mph100%30.14 "Hg15 mi
3:00 AM50 °FMostly cloudy.2 mph94%30.15 "Hg15 mi
2:00 AM50 °FLight rain. Overcast.6 mph88%30.16 "Hg15 mi
1:00 AM48 °FOvercast.7 mph94%30.16 "Hg15 mi
Weather by CustomWeather, © 2015

See weather overviewHow to use our weather pages